Tracking 35331 objects as of 16-Sep-2026
HD Live streaming from Space Station
objects crossing your sky now

COSMOS 1352 DEB


COSMOS 1352 DEB is no longer on orbit


NORAD ID: 13156
Int'l Code: 1982-035D
Launch date: April 21, 1982
Source: Commonwealth of Independent States (former USSR) (CIS)
Launch site: TYURATAM MISSILE AND SPACE COMPLEX (TTMTR)
Decay date: 1982-11-30

Note: This is SATELLITE DEBRIS
Your satellite tracking list
Your tracking list is empty




NASA's NSSDC Master Catalog

Two Line Element Set (TLE):
1 13156U 82035  D 82334.49579668  .11308659 +05982-5 +01303-4 0  9991
2 13156 070.3400 128.9348 0006852 223.7534 136.6248 16.47085762035176
Source of the keplerian elements: AFSPC